Cosmos 1470 - Orbit

View from above orbital plane
View from above orbital plane
View from above satellite
View from above satellite

Ground track
Ground track

The orbit data is extracted from the following two-line orbital elements,

1 14147U 83061A   13142.14050193  .00003023  00000-0  21423-3 0  7147
2 14147 082.5100 051.6502 0013986 349.1667 010.9256 15.04397141380668
Epoch (UTC): 22 May 2013 03:22:19
Eccentricity: 0.0013986
inclination: 82.5100°
perigee height: 543 km
apogee height: 563 km
right ascension of ascending node: 51.6502°
argument of perigee: 349.1667°
revolutions per day: 15.04397141
mean anomaly at epoch: 10.9256°
orbit number at epoch: 38066

The dashed part of the orbit path shows where the satellite is in the earth's shadow,  

Developed and maintained by Chris Peat, Heavens-Above GmbH. Please read the updated FAQ before sending e-mail. Imprint. DLR